Location: Appelscha
(52.9528°N, 6.3642°E)
Time: 10:14:09
(UTC+00:00)

Daily predictions for brighter satellites

Satellite Brightness Start Highest point End
(mag) Time Altitude Azimuth Time Altitude Azimuth Time Altitude Azimuth
Cosmos 2082 4.1 20:39:42 10° SW 20:45:18 71° NW 20:50:56 10° NNE
Okean 3 Rocket 3.6 20:41:20 10° N 20:45:49 75° ENE 20:50:13 10° SSE
Cosmos 2227 4.3 20:40:44 10° SSW 20:46:24 64° ESE 20:52:08 10° NE
Cosmos 724 4.3 20:40:40 10° NW 20:46:32 87° NE 20:52:20 10° SE
Helios 1A Rocket 3.6 20:44:57 10° N 20:47:56 42° WNW 20:50:54 10° SW
Meteor 2-20 Rocket 4.5 20:43:03 10° S 20:48:53 88° WNW 20:54:58 10° N
CZ-4 R/B 4.1 20:47:09 10° WSW 20:48:58 13° W 20:50:48 10° WNW
Cosmos 2263 Rocket 3.9 20:44:22 10° WSW 20:49:34 39° NW 20:54:47 10° NNE
Ariane Rocket 3.1 20:45:04 10° SSE 20:50:08 76° ENE 20:55:13 10° NNW
IRS-1C Rocket 4.2 20:45:26 10° SSE 20:50:41 77° ENE 20:55:58 10° NNW
Okean-O 3.6 20:47:08 10° S 20:51:20 45° W 20:55:34 10° NNW
Cosmos 1805 Rocket 3.8 20:47:49 10° N 20:52:05 56° ENE 20:56:20 10° SSE
Cosmos 1340 Rocket 2.6 20:51:43 10° NNW 20:55:30 88° ENE 20:59:14 10° SSE
Cosmos 1408 Rocket 3.8 20:51:53 10° N 20:56:15 62° ENE 21:00:37 10° SSE
NOSS 3-2 (A) 3.3 20:52:07 10° SSW 20:57:03 54° SE 21:02:59 10° NE
Cosmos 1603 4.0 20:51:47 10° NW 20:57:29 66° WSW 21:03:07 10° SSE
USA 215 3.3 20:51:48 10° ESE 20:58:20 86° SSW 21:04:56 10° WNW
Cosmos 1842 Rocket 3.7 20:54:34 10° SSW 20:59:00 81° W 21:03:29 10° N
Cosmos 773 Rocket 4.2 20:56:23 10° SSW 21:01:31 77° WNW 21:06:44 10° NNE
Cosmos 1743 Rocket 4.1 20:59:26 10° N 21:03:35 45° ENE 21:07:45 10° SSE
Cosmos 1703 4.1 21:04:34 10° SSE 21:07:12 24° E 21:09:50 10° NE
USA 245 3.5 21:04:08 10° S 21:07:46 52° WSW 21:10:45 10° NNW
Cosmos 1844 Rocket 2.7 21:03:14 10° SSW 21:08:49 88° ESE 21:14:26 10° NNE
GEOS 3 Rocket 4.5 21:06:01 10° ESE 21:11:10 49° NNE 21:16:22 10° NW
SL-14 R/B 3.3 21:08:06 10° SSW 21:11:49 78° W 21:15:34 10° N
CZ-4C R/B 4.0 21:07:32 10° WNW 21:13:50 35° WSW 21:21:22 10° S
Cosmos 1553 Rocket 4.2 21:08:36 10° S 21:14:52 63° E 21:21:06 10° NNE
Cosmos 1833 Rocket 3.1 21:11:42 10° NNW 21:17:18 59° NE 21:22:52 10° SE
Cosmos 1151 Rocket 3.0 21:15:15 10° S 21:19:33 69° E 21:23:53 10° NNE
Cosmos 2082 Rocket 4.1 21:17:41 10° NNW 21:22:11 24° NE 21:26:40 10° E
CZ-2C R/B 1.8 21:23:48 13° SSE 21:26:12 83° WSW 21:28:58 10° NNW
Cosmos 1953 2.7 21:23:11 10° N 21:26:39 43° ENE 21:29:35 13° SE
SL-24 R/B - RUBIN 2 3.6 21:24:50 10° SW 21:29:19 85° NW 21:33:42 10° NE
Cosmos 1844 4.0 21:24:13 10° SW 21:30:01 76° NW 21:35:51 10° NNE
CZ-4B R/B 4.0 21:25:14 10° S 21:30:13 57° WSW 21:35:22 10° NNW
Cosmos 2278 Rocket 4.2 21:29:36 10° ESE 21:31:00 11° E 21:32:26 10° E
Okean O Rocket 3.8 21:27:43 10° SW 21:31:01 21° W 21:34:20 10° NW
Cosmos 1633 Rocket 3.9 21:30:21 10° N 21:34:29 39° ENE 21:38:07 13° SE
NOSS 3-2 (C) 3.5 21:33:42 10° SSW 21:38:30 44° ESE 21:44:12 10° NE
Cosmos 1461 4.3 21:39:49 10° WNW 21:42:30 21° WSW 21:45:06 10° SSW
NOSS 2-3 (C) 4.3 21:42:38 15° SSE 21:44:24 22° ESE 21:47:15 10° ENE
Cosmos 1745 Rocket 4.1 21:39:08 10° N 21:45:24 78° E 21:51:04 13° SSE
CZ-4B R/B 4.5 21:43:30 10° SSW 21:46:50 27° W 21:50:16 10° NW
Cosmos 1500 Rocket 4.5 21:48:28 10° NNW 21:52:35 43° W 21:56:39 10° SSW
Helios 1A 3.4 21:50:55 10° NNE 21:54:40 41° E 21:57:27 16° SSE
Cosmos 2344 4.0 21:49:57 10° S 21:56:59 38° ESE 22:03:29 10° NE
GP-B 3.5 21:52:41 10° N 21:57:01 60° W 22:01:18 10° SSW
Helios 1B rocket 2.7 21:57:41 16° SE 22:00:12 43° ENE 22:03:31 10° N
Iridium 4 Rocket 3.6 21:55:05 10° S 22:00:30 80° W 22:05:32 10° N
ARIANE 5 R/B 3.6 21:59:12 13° SE 22:02:50 40° ENE 22:06:59 10° N
SWARM A 4.2 22:00:07 10° N 22:03:21 76° W 22:05:43 17° S
Cosmos 1470 Rocket 4.0 22:02:00 10° N 22:06:23 53° ENE 22:09:41 17° SSE
Cosmos 1420 Rocket 4.0 22:03:47 10° NNW 22:09:03 84° ENE 22:13:10 16° SSE
Okean 2 4.4 22:07:04 17° SE 22:09:18 29° E 22:12:40 10° NNE
NOSS 2-3 (D) 3.2 22:07:53 10° SSW 22:11:31 57° SE 22:15:20 10° NE
ALOS 2 3.4 22:11:55 14° SE 22:15:20 43° ENE 22:19:31 10° N
Cosmos 1538 Rocket 4.0 22:11:45 10° SSW 22:16:55 79° ESE 22:22:11 10° NNE
Cosmos 2315 Rocket 4.1 22:13:37 15° S 22:18:55 70° E 22:25:07 10° NNE
Cosmos 1943 Rocket 3.1 22:16:33 17° SSE 22:20:06 32° ESE 22:25:02 10° NE
CENTAUR R/B 4.1 22:14:37 10° W 22:20:38 44° NNW 22:28:12 10° NE
Meteor 1-21 4.4 22:18:13 16° S 22:22:39 62° E 22:28:14 10° NNE
Cosmos 923 Rocket 4.4 22:21:16 17° S 22:25:00 46° ESE 22:29:59 10° NE
CZ-2C R/B 4.2 22:22:03 10° NNE 22:26:36 48° E 22:29:46 19° SSE
Cosmos 1328 Rocket 3.5 22:24:40 16° S 22:28:09 89° WNW 22:32:31 10° N
Lacrosse 5 rocket 1.9 22:30:44 22° S 22:31:57 28° SE 22:35:01 10° ENE
Cosmos 1666 Rocket 4.1 22:30:07 10° NNW 22:34:20 50° W 22:37:29 17° SSW
CZ-2C R/B 3.8 22:31:43 10° SE 22:36:22 35° ENE 22:41:05 10° N
USA 81 4.3 22:31:50 10° N 22:37:04 60° E 22:40:53 18° SSE
NOSS 2-3 (E) 3.2 22:35:27 10° SW 22:39:05 84° NW 22:43:03 10° NE
Cosmos 1371 Rocket 4.1 22:34:22 10° NNW 22:39:40 80° ENE 22:43:38 18° SSE
PSLV R/B 4.4 22:37:28 10° NNE 22:41:53 42° E 22:44:44 20° SSE
USA 215 3.9 22:37:29 17° SSE 22:41:54 37° SW 22:47:54 10° WNW
Cosmos 1869 Rocket 4.2 22:41:37 10° N 22:45:45 44° ENE 22:48:44 17° SE
NOSS 3-2 (A) 4.4 22:42:41 10° WSW 22:47:56 49° NNW 22:54:21 10° NE
GEOS 3 Rocket 3.9 22:45:16 18° SSE 22:49:07 55° SW 22:54:26 10° NW
S3M 4.4 22:48:41 11° SSW 22:54:33 59° WNW 23:00:38 10° N
MetOp-A 4.1 22:53:36 17° SE 22:56:22 45° ENE 23:00:02 10° N
NOSS 2-1 (D) 4.4 22:55:58 20° SE 22:56:24 21° SE 22:58:52 10° ENE
Cosmos 2154 Rocket 4.2 22:50:52 10° N 22:57:02 63° ENE 23:01:51 17° SSE
Cosmos 2184 Rocket 4.2 22:51:49 10° N 22:58:04 69° ENE 23:02:54 18° SSE
ARGOS Delta rocket 4.2 22:52:40 10° N 22:58:07 80° WNW 23:02:18 16° SSW
Cosmos 1515 Rocket 3.5 22:55:38 21° S 22:58:30 79° E 23:02:51 10° NNE
CSL-04 DEB 4.4 22:57:32 23° S 22:59:37 56° WSW 23:03:15 10° NNW
Cosmos 1833 Rocket 3.8 22:56:01 10° NW 23:00:56 31° WSW 23:04:36 16° SSW
Cosmos 1953 4.3 22:58:48 10° NW 23:01:14 17° W 23:03:40 10° SW
USA 59 Rocket 0.4 23:01:29 24° SSE 23:02:09 26° SE 23:04:47 10° ENE
Spot 4 4.0 22:59:30 20° S 23:02:45 65° WSW 23:07:34 10° NNW
Cosmos 1733 Rocket 4.4 23:01:56 10° N 23:05:47 31° ENE 23:09:08 13° SE
Cosmos 2082 Rocket 2.3 23:01:29 10° NNW 23:07:10 79° ENE 23:11:52 15° SE
SAR-Lupe-2 3.4 23:05:49 25° SSE 23:07:31 70° ENE 23:10:45 10° N
Okean 3 3.3 23:09:18 24° S 23:11:36 70° E 23:15:36 10° NNE
Cosmos 2278 Rocket 2.4 23:09:54 19° S 23:13:52 58° ESE 23:19:26 10° NE
Cosmos 1331 Rocket 4.1 23:14:19 10° NNW 23:19:29 75° ENE 23:23:34 16° SSE
Okean 1-7 4.5 23:20:00 15° SE 23:22:30 26° E 23:26:00 10° NNE
Cosmos 1400 Rocket 3.0 23:20:00 10° NNW 23:23:36 51° W 23:25:30 24° SSW
Cosmos 1624 Rocket 4.5 23:18:47 10° NW 23:23:53 50° WSW 23:27:15 21° S
COSMOS 2406 3.7 23:19:47 10° NNW 23:25:26 58° NE 23:31:02 10° SE
CZ-2C R/B 3.3 23:20:23 10° NNE 23:25:59 66° ESE 23:29:38 21° S
Cosmos 1680 Rocket 3.5 23:22:43 16° SSW 23:26:50 84° WNW 23:32:05 10° NNE
Cosmos 494 Rocket 4.0 23:24:38 18° SSW 23:28:35 87° ESE 23:33:52 10° NNE
NOSS 3-2 (C) 4.1 23:23:56 10° WSW 23:29:11 55° NNW 23:35:39 10° NE
Cosmos 2056 Rocket 4.1 23:25:48 10° NW 23:30:36 42° WSW 23:33:39 20° SSW
Helios 1B rocket 4.0 23:31:35 13° SW 23:33:19 18° W 23:35:47 10° NW
NOSS 2-3 (C) 4.1 23:30:54 10° WSW 23:34:14 47° NNW 23:38:00 10° NE
Cosmos 1048 Rocket 4.3 23:31:19 21° S 23:34:35 52° ESE 23:39:42 10° NNE
Cosmos 1812 2.3 23:34:16 10° NNW 23:35:32 27° WNW 23:35:32 27° WNW
Cosmos 1328 4.0 23:35:16 25° SSE 23:37:02 49° E 23:40:30 10° NNE
ACS3 Solar Sail 2.3 23:33:39 10° NNE 23:39:07 45° E 23:43:12 18° SSE
ARIANE 5 R/B 3.9 23:36:34 17° SSW 23:39:13 30° W 23:43:10 10° NNW
Lacrosse 4 Rocket 4.0 23:38:21 10° NNW 23:41:40 22° NNE 23:44:58 10° E
USA 238 DEB 3.5 23:36:16 13° SW 23:41:51 76° SE 23:48:43 10° NE
USA 238 3.5 23:36:31 13° SW 23:42:04 75° SE 23:48:57 10° NE
BREEZE-M DEB (TANK) 3.3 23:37:26 10° W 23:49:45 65° SSW 23:53:39 10° ESE
ALOS 2 4.0 23:49:18 16° SW 23:51:50 27° W 23:55:35 10° NW
Cosmos 1441 Rocket 3.3 23:54:17 23° SW 23:56:02 49° WNW 23:59:13 10° N
